GFSSGP_con_lsi_132.txt.gz
Lid_Strength_Index
3 5 4 5 9 9 12 10 7 8 8 6 5 6 8 7 9 12 2 0 -0 -0 -1 -1 -2 -2 -2 -2 -2 -2 -2 -2 -2 -2 -2 -2 -2 -2 -2 -2 -2 -2 -2 -2 -2 -2 -2 -2 -2
4 5 5 6 11 13 12 8 9 8 6 5 5 6 7 9 5 4 3 0 -0 -0 -1 -1 -1 -2 -2 -2 -2 -2 -2 -2 -2 -2 -2 -2 -2 -2 -2 -3 -2 -2 -2 -2 -2 -2 -2 -2 -2
5 5 7 9 10 12 12 8 8 6 6 6 7 5 6 7 4 3 1 0 -0 -0 -1 -1 -1 -2 -2 -2 -3 -3 -2 -2 -2 -2 -2 -2 -2 -2 -2 -3 -3 -3 -2 -2 -2 -2 -2 -2 -2
7 6 7 12 12 9 8 8 6 7 7 5 6 8 5 3 3 2 0 0 0 -0 -1 -1 -1 -2 -2 -2 -2 -2 -2 -2 -2 -2 -2 -2 -2 -2 -3 -3 -3 -2 -2 -2 -2 -2 -2 -2 -2
6 7 10 12 12 9 8 6 6 7 6 6 7 9 7 3 1 1 1 0 1 0 -0 -1 -1 -2 -2 -2 -2 -2 -2 -2 -2 -2 -2 -2 -2 -2 -3 -3 -2 -2 -2 -2 -2 -2 -2 -2 -2
7 8 12 13 12 9 8 6 6 7 6 6 7 7 7 2 2 1 1 1 0 0 -0 -1 -0 -1 -2 -2 -2 -2 -2 -2 -2 -2 -2 -2 -3 -3 -3 -2 -2 -2 -2 -2 -2 -2 -2 -2 -2
8 10 12 10 12 10 7 6 7 7 6 7 5 8 6 4 2 1 1 1 0 -0 -0 -0 -1 -0 -0 -1 -2 -2 -2 -2 -2 -2 -2 -2 -2 -2 -2 -3 -2 -2 -2 -2 -2 -2 -2 -2 -2
7 8 11 11 12 12 7 6 6 6 7 5 4 8 9 4 2 1 1 1 1 0 0 0 -0 -0 -0 -0 -0 -1 -1 -2 -2 -2 -2 -1 -1 -2 -2 -2 -2 -2 -2 -2 -2 -2 -2 -2 -2
6 11 12 11 11 11 7 7 6 6 6 6 5 5 4 2 1 2 2 2 2 1 1 0 0 -0 -0 -1 0 0 -0 -1 -1 -1 -1 -0 -0 -1 -1 -1 -2 -2 -2 -2 -2 -2 -2 -2 -2
7 11 11 7 9 11 8 7 6 7 7 7 6 4 3 2 3 3 3 3 2 2 1 0 1 0 -0 -0 -0 -0 -1 -1 -1 -1 0 -0 0 0 -1 1 -1 -1 -2 -2 -2 -2 -1 -0 0
8 11 9 8 9 10 9 8 6 8 8 6 6 6 4 3 3 3 3 3 2 2 1 1 1 0 0 0 -0 0 0 0 -0 -0 -0 -0 0 0 0 0 0 0 1 0 -0 0 0 0 0
9 7 7 7 9 10 10 9 7 7 8 7 5 4 4 4 4 4 3 3 2 2 2 1 1 0 0 -0 -0 -0 0 0 1 0 -0 0 0 0 1 1 1 1 0 1 1 1 1 1 0
9 8 7 10 10 10 10 11 11 8 6 6 4 4 4 4 4 3 2 2 2 2 1 1 1 1 0 0 -0 -0 1 0 0 0 -0 -0 0 1 1 1 1 1 1 1 1 2 1 1 1
7 8 8 10 11 11 11 11 12 10 9 6 4 5 4 4 4 3 3 2 2 2 1 1 1 1 0 0 0 -0 0 1 0 0 0 0 0 1 1 1 1 1 1 2 2 2 1 1 1
8 9 9 11 9 10 10 11 12 10 10 8 6 5 4 4 3 3 3 2 2 2 1 1 1 1 1 1 0 1 0 0 1 0 -0 0 0 0 1 1 1 1 1 1 1 1 1 1 1
11 11 13 9 10 10 11 13 8 9 10 10 9 6 5 4 3 3 2 2 2 2 2 1 0 1 1 1 0 0 1 0 0 1 0 -0 -0 0 1 0 0 -0 1 1 1 1 2 2 2
11 14 13 11 9 11 12 12 8 7 9 10 10 9 6 5 4 3 3 2 2 2 2 2 1 1 1 1 1 0 0 1 0 -0 0 0 -0 -0 0 0 -0 -0 1 0 1 1 1 2 2
15 14 12 12 10 10 13 12 9 9 11 10 9 9 8 6 4 3 3 2 2 2 1 1 1 1 1 1 1 1 1 0 0 0 -0 0 -0 -0 0 -0 0 1 1 1 1 1 1 1 1
11 12 13 10 10 11 12 11 10 9 9 11 10 9 9 7 5 3 3 3 2 2 2 1 1 1 1 1 2 2 1 1 1 1 0 0 0 0 0 0 1 1 1 1 0 1 1 1 1
11 13 13 10 12 13 12 12 10 10 10 9 9 9 9 9 7 5 3 3 2 2 2 2 1 1 1 1 1 1 1 1 1 1 0 0 0 0 0 0 1 0 0 0 0 1 2 2 2
11 12 13 13 12 12 14 14 12 10 9 9 9 10 9 10 9 7 4 3 3 3 2 2 1 1 1 1 1 1 1 1 2 1 1 1 0 0 0 0 1 1 0 1 1 1 2 2 2
13 10 10 11 14 17 13 18 13 11 9 8 9 10 10 11 10 9 5 4 3 2 2 2 1 1 1 1 1 2 2 3 1 1 1 0 1 0 0 0 0 0 0 1 1 2 2 3 3
11 10 11 12 13 14 14 17 14 12 12 10 8 8 10 10 10 10 7 4 2 2 2 2 1 1 1 1 1 1 2 1 1 1 1 1 1 1 0 0 0 0 0 1 1 2 2 3 3
9 11 11 13 14 18 15 16 16 13 12 10 9 7 7 8 9 9 9 6 3 3 3 2 2 2 1 1 1 1 2 2 2 2 2 1 1 1 1 0 0 0 0 1 0 1 2 2 2
9 12 18 19 19 20 17 17 15 12 11 10 10 10 10 9 7 7 9 9 7 5 3 3 3 3 2 2 1 1 1 2 2 2 1 2 1 1 1 1 1 1 1 1 1 0 1 2 2
11 12 17 22 21 20 18 19 16 10 10 10 11 12 11 11 10 11 9 8 8 7 5 4 4 3 3 2 2 2 1 1 1 1 1 1 1 1 1 1 1 1 2 2 2 1 1 1 2
12 13 11 17 22 20 18 15 12 10 11 10 10 11 11 11 9 10 10 9 9 9 9 7 6 6 4 3 3 2 2 2 2 2 2 2 2 2 2 2 2 2 2 2 2 3 3 3 4
10 9 14 14 22 22 18 17 16 14 11 11 11 11 12 11 11 11 10 10 9 10 10 9 9 9 7 6 3 2 2 2 1 2 1 1 1 1 2 2 3 3 4 3 3 4 5 5 6
14 12 12 13 15 20 20 17 13 12 11 12 12 11 11 12 11 10 10 9 9 8 9 9 9 9 8 8 6 4 4 3 2 2 2 2 2 2 3 3 4 4 5 6 6 6 7 7 8
12 11 12 15 17 16 17 17 12 12 12 12 12 11 12 11 10 10 10 9 9 8 7 7 7 8 8 7 7 7 6 5 4 3 2 2 3 4 4 5 6 6 7 8 8 9 8 8 9

GFSSGP_con_lsi_135.txt.gz
Lid_Strength_Index
3 5 7 7 11 11 13 12 9 9 9 7 6 7 9 8 10 12 2 0 0 -0 -1 -1 -2 -2 -2 -2 -2 -2 -2 -2 -2 -2 -2 -2 -2 -2 -2 -3 -2 -3 -2 -2 -2 -2 -2 -2 -2
4 5 7 9 13 15 13 10 10 8 7 5 5 6 8 9 5 4 3 0 -0 -0 -1 -1 -1 -2 -2 -2 -2 -2 -2 -2 -2 -2 -2 -2 -2 -2 -2 -3 -2 -2 -2 -2 -2 -2 -2 -2 -2
6 6 10 11 14 15 13 10 9 7 6 7 7 5 7 8 4 3 1 1 0 -0 -1 -1 -1 -2 -2 -3 -3 -2 -2 -2 -2 -2 -2 -2 -2 -3 -3 -3 -3 -2 -2 -2 -2 -2 -2 -2 -2
8 8 9 13 15 12 11 9 7 7 8 6 6 9 5 3 3 2 1 0 0 -0 -0 -1 -2 -2 -2 -3 -3 -3 -2 -2 -2 -2 -2 -2 -2 -3 -3 -3 -2 -2 -2 -2 -2 -2 -2 -2 -2
7 10 12 14 14 13 9 7 6 8 7 8 6 10 8 3 2 1 1 1 0 0 0 -1 -1 -2 -2 -2 -3 -2 -2 -2 -2 -2 -2 -2 -3 -3 -3 -2 -2 -2 -2 -2 -2 -2 -2 -2 -2
8 10 14 14 14 12 9 7 7 8 7 8 8 8 7 3 2 2 1 1 -0 -0 -0 -1 -0 -1 -2 -2 -2 -2 -2 -2 -2 -2 -2 -2 -3 -4 -2 -2 -2 -2 -2 -2 -2 -2 -2 -2 -2
9 11 13 13 13 13 10 7 8 7 7 8 5 9 7 4 2 2 2 1 0 -0 -0 0 -0 -0 -1 -1 -2 -2 -2 -2 -2 -2 -3 -2 -3 -3 -3 -2 -2 -2 -2 -2 -2 -2 -2 -2 -2
7 9 12 13 14 13 10 7 7 6 8 5 5 9 9 4 2 2 2 1 1 0 0 0 0 -0 -0 -0 -0 -1 -1 -2 -2 -2 -1 -1 -1 -2 -2 -1 -2 -2 -2 -2 -2 -2 -2 -2 -2
5 11 13 11 12 12 10 9 7 6 6 6 5 5 4 3 3 3 3 3 2 1 0 0 0 0 -0 -0 1 0 -0 -1 -1 -1 -0 0 0 -0 -0 -0 -1 -2 -2 -2 -2 -2 -2 -2 -1
8 12 11 8 9 12 10 10 9 7 7 7 7 4 3 3 3 4 3 4 3 2 2 0 0 0 -0 -1 -0 -0 -0 -0 -0 -0 0 -0 0 -0 -0 1 -1 -2 -2 -2 -2 -2 -2 -0 1
7 11 8 8 7 10 11 11 10 8 9 7 7 6 4 4 4 3 3 4 3 3 1 1 1 1 1 0 0 0 0 0 -0 1 0 0 1 0 0 1 1 1 1 1 0 1 1 1 1
9 7 7 7 6 11 12 11 10 9 8 6 5 4 4 4 4 4 3 3 3 3 2 2 1 1 1 1 0 0 0 1 1 1 0 1 2 1 1 1 1 1 1 1 1 2 1 1 1
10 8 7 8 9 11 11 12 11 10 8 6 4 4 5 4 4 3 3 3 2 2 2 2 1 1 1 0 -0 1 0 1 1 1 0 0 0 1 1 1 2 1 1 1 2 2 2 2 2
9 8 7 10 10 11 11 12 12 10 8 5 5 5 5 4 4 3 3 3 2 2 2 2 2 1 1 1 0 1 1 1 1 1 0 0 1 1 1 2 2 2 2 2 2 3 2 2 2
9 11 10 11 10 11 11 12 13 11 11 8 6 5 5 4 3 4 3 2 2 2 1 2 2 1 1 1 1 0 1 1 1 1 0 1 0 1 1 1 1 2 2 2 1 1 1 2 2
12 11 13 11 10 10 10 13 9 10 11 11 10 6 5 5 4 3 2 2 2 2 2 1 1 2 1 1 1 0 -0 1 1 1 1 0 0 0 1 1 1 1 1 1 1 2 2 2 2
14 16 15 12 10 12 12 12 9 7 11 11 12 10 5 5 4 3 3 2 3 2 2 2 1 2 1 1 1 0 1 1 1 1 1 0 -0 0 1 1 1 0 1 1 1 1 1 1 2
16 15 14 14 11 13 14 13 10 10 11 11 12 12 10 6 4 3 3 2 2 2 2 2 2 1 2 1 1 1 1 1 1 1 1 1 0 -0 1 1 0 0 1 2 2 1 1 1 1
12 13 14 12 10 12 13 13 12 11 11 11 12 11 11 8 4 3 3 3 3 2 2 2 3 2 1 2 2 2 2 1 1 1 -0 0 0 0 1 1 1 2 2 2 2 1 1 2 1
11 12 13 13 12 12 14 13 12 11 9 9 11 11 10 10 8 4 4 4 3 3 2 2 2 3 2 1 1 1 1 2 1 1 1 0 0 0 1 1 1 2 3 2 2 1 2 2 2
12 13 13 13 13 14 15 15 14 11 10 10 9 9 9 9 9 6 4 4 3 4 3 2 2 2 2 2 1 2 2 2 2 2 1 1 1 1 1 1 1 1 2 2 1 2 2 2 2
15 10 11 11 13 15 14 18 15 13 12 10 10 11 10 9 10 9 5 4 4 3 3 2 2 2 2 2 2 1 2 3 1 1 1 1 1 1 1 1 1 1 2 2 1 2 2 3 3
12 9 10 11 13 14 16 18 16 14 14 12 10 10 10 10 10 11 7 4 3 2 3 2 2 2 1 1 2 2 2 1 2 1 1 1 1 1 1 1 1 1 2 2 2 3 3 3 3
9 10 11 12 14 19 16 16 17 15 13 13 11 9 8 10 10 10 10 6 4 3 3 2 2 2 1 1 1 2 2 2 2 2 2 1 1 1 1 1 1 1 1 1 1 2 2 2 3
10 12 18 20 19 20 19 18 15 14 13 12 11 10 9 9 9 11 11 11 6 5 4 3 3 2 2 2 2 2 2 2 2 2 2 2 2 2 1 2 1 1 1 1 1 2 2 2 2
11 12 18 22 21 20 20 20 17 12 11 11 11 12 12 12 11 10 9 10 9 6 4 3 4 3 3 2 2 1 1 2 2 2 1 1 1 1 1 1 1 1 1 1 1 1 2 2 2
12 14 12 17 23 20 20 18 14 13 13 13 11 11 12 12 11 11 12 10 10 8 5 3 3 3 3 3 3 2 1 1 2 2 2 1 1 1 1 1 1 2 2 2 2 2 3 3 3
10 10 15 16 22 23 20 20 18 15 13 12 13 12 12 12 12 12 11 11 11 10 10 8 6 6 6 5 4 3 2 2 1 2 2 2 2 2 1 1 2 3 3 3 3 3 5 4 5
12 13 13 14 16 20 21 19 15 13 13 12 12 12 12 12 12 12 11 10 10 10 10 10 9 9 9 9 8 6 5 4 3 3 3 3 3 2 2 2 2 3 3 4 4 5 6 5 7
11 12 13 16 18 17 18 18 13 13 13 12 12 12 12 11 11 11 11 10 10 10 9 9 9 9 8 7 7 6 5 4 4 4 3 3 3 3 3 4 5 5 6 6 6 7 7 7 8

GFSSGP_con_lsi_138.txt.gz
Lid_Strength_Index
2 5 8 7 11 12 13 12 10 10 10 7 6 7 9 8 10 12 2 1 -0 -0 -0 -1 -2 -2 -1 -2 -2 -2 -2 -2 -2 -2 -2 -2 -2 -2 -2 -2 -2 -2 -2 -2 -2 -2 -2 -2 -2
4 6 7 10 14 16 14 11 10 9 7 7 6 7 8 10 5 4 3 0 -0 -0 -0 -1 -1 -2 -1 -2 -2 -2 -2 -2 -2 -2 -2 -2 -2 -2 -2 -2 -2 -2 -2 -2 -2 -2 -2 -2 -2
6 7 10 12 15 16 14 10 9 8 7 7 8 6 7 8 4 3 1 0 -0 0 -0 -1 -1 -2 -2 -2 -2 -2 -2 -2 -2 -2 -2 -2 -2 -2 -2 -2 -2 -2 -2 -2 -2 -2 -2 -2 -2
8 8 10 13 15 14 11 9 8 8 8 6 7 9 6 3 3 2 1 1 0 -0 -0 -1 -2 -2 -3 -2 -2 -2 -2 -2 -2 -2 -2 -2 -3 -2 -2 -2 -2 -2 -2 -2 -2 -2 -2 -2 -2
8 10 13 14 14 13 10 8 7 8 8 8 7 10 9 4 2 1 1 0 0 0 0 -1 -2 -2 -2 -3 -3 -3 -2 -2 -2 -2 -2 -2 -3 -2 -2 -2 -2 -2 -2 -2 -2 -2 -2 -2 -2
9 10 14 15 14 12 10 7 7 8 8 8 8 8 9 3 2 2 1 1 -0 0 -0 -0 -0 -1 -2 -2 -2 -2 -2 -2 -2 -2 -2 -2 -2 -2 -2 -2 -2 -2 -2 -2 -2 -2 -2 -2 -2
10 12 13 14 13 13 10 8 8 7 8 8 6 10 6 4 3 2 2 1 0 0 -0 0 -0 -0 -1 -1 -2 -2 -2 -2 -2 -2 -2 -2 -2 -2 -2 -2 -2 -2 -2 -2 -2 -2 -2 -2 -2
8 10 12 13 15 14 11 9 8 7 8 5 5 9 8 4 3 2 2 1 0 1 0 0 0 -0 0 -0 -0 -1 -1 -1 -2 -1 -1 -1 -1 -1 -1 -1 -2 -2 -2 -2 -2 -2 -2 -2 -2
6 11 13 12 12 13 10 10 8 6 6 6 6 5 4 3 3 2 3 2 1 1 1 1 0 0 -0 0 1 0 -1 -1 -1 -0 0 1 0 0 -0 0 -1 -2 -2 -2 -2 -2 -2 -1 -1
8 12 11 8 9 13 12 11 9 7 7 8 7 4 3 3 4 3 3 3 3 2 2 1 1 0 -0 -1 0 0 -0 0 -0 0 1 0 1 0 0 1 -1 -2 -2 -2 -2 -2 -2 -0 1
8 11 8 8 7 8 12 11 11 8 9 7 8 6 4 4 4 4 3 3 3 2 1 0 1 0 0 0 0 0 0 1 0 1 0 0 1 1 1 1 1 1 1 1 1 1 1 1 2
10 8 7 7 6 9 12 11 12 10 8 6 5 4 4 4 4 4 4 3 3 3 2 0 0 -0 0 -0 0 0 0 0 1 1 1 1 2 1 1 1 1 1 1 1 2 2 2 2 2
9 8 7 6 6 9 11 12 12 12 10 5 4 4 4 4 4 4 3 3 3 2 2 2 1 1 1 0 0 0 0 0 0 1 1 1 2 2 1 1 1 1 2 2 3 3 2 3 2
8 8 7 7 9 10 12 12 13 11 9 6 5 5 4 4 4 4 4 3 3 2 2 2 2 1 1 1 0 0 0 1 1 1 1 1 1 1 1 2 2 2 2 2 2 3 2 2 3
8 10 9 10 10 11 11 13 13 12 9 6 6 5 5 4 3 4 3 3 2 2 2 2 2 1 1 1 1 1 1 1 1 1 1 0 0 1 1 2 2 2 2 3 3 3 2 2 2
10 10 13 11 10 11 11 13 9 11 12 7 6 6 5 5 4 3 2 3 2 2 2 2 1 1 1 1 1 1 1 1 1 2 1 0 0 1 2 2 2 2 2 2 2 2 2 2 2
12 15 13 12 11 11 11 12 9 8 12 12 10 6 6 5 4 3 2 3 3 2 2 2 2 2 1 1 1 1 1 1 2 2 1 1 1 1 2 2 2 2 2 2 2 2 3 3 3
15 14 13 13 12 13 14 13 11 10 11 12 13 11 7 5 5 3 2 2 2 2 2 2 2 2 1 1 1 2 2 0 2 1 1 1 0 1 1 2 2 2 2 3 2 3 2 1 1
11 12 14 12 10 13 14 13 12 10 12 11 12 13 11 7 4 3 2 2 2 3 3 3 3 2 2 2 2 2 2 2 2 1 1 1 1 1 1 1 2 2 2 2 2 3 3 3 2
11 13 13 12 11 13 13 13 12 12 10 11 11 12 11 11 9 5 3 3 3 3 3 3 3 2 2 1 1 2 2 2 1 1 1 1 1 1 1 1 2 2 3 3 2 3 4 3 3
12 13 13 13 14 13 14 15 15 12 11 11 10 9 10 10 10 8 5 4 3 3 3 3 3 3 2 2 2 3 3 3 3 2 1 1 1 0 1 1 1 2 2 2 3 3 3 3 3
14 10 11 12 14 16 13 18 16 14 13 12 10 10 9 10 10 9 6 5 3 3 3 3 3 3 3 2 2 2 2 3 2 1 1 1 1 1 0 1 1 1 2 2 3 3 2 3 2
12 9 11 11 13 14 15 17 16 15 14 13 11 9 9 9 10 10 7 4 4 3 3 2 2 3 3 3 2 2 2 2 2 2 2 2 1 1 1 1 1 1 1 1 2 4 3 2 2
9 11 11 12 13 18 15 15 17 15 14 13 13 11 9 11 10 10 9 5 4 4 4 3 3 3 2 3 3 3 3 2 3 2 2 2 1 1 1 1 1 1 1 2 2 3 3 2 2
10 13 19 20 20 20 17 16 14 13 13 13 13 12 11 10 11 11 11 10 6 5 4 3 3 3 2 2 3 3 3 3 3 2 2 2 1 1 1 1 1 1 1 1 2 2 3 3 2
12 13 18 22 22 20 18 18 17 12 9 12 13 12 12 11 10 10 9 10 10 6 4 3 3 3 2 2 2 2 2 2 2 2 1 1 1 1 1 1 1 1 1 2 2 2 2 2 2
13 15 12 18 24 20 19 17 15 14 14 13 13 14 13 13 12 12 12 10 10 9 5 3 3 3 3 2 2 2 2 2 2 2 2 2 1 1 2 1 2 2 2 2 2 2 2 3 3
11 9 15 17 22 23 20 20 17 15 14 14 14 13 12 12 12 12 12 12 11 11 8 5 4 4 5 4 3 2 2 2 2 2 2 2 2 2 2 2 2 2 2 2 2 2 2 3 3
12 13 13 15 17 21 23 20 15 14 13 13 14 14 13 13 13 12 11 11 11 11 11 10 9 7 7 6 6 6 5 4 3 2 2 3 3 2 2 2 2 1 2 2 3 3 4 5 5
11 12 14 15 18 18 19 19 15 13 12 12 14 14 13 13 12 12 12 11 11 10 10 10 10 10 10 9 9 8 7 6 5 4 4 4 3 4 3 3 3 3 4 3 3 4 6 5 7

GFSSGP_con_lsi_141.txt.gz
Lid_Strength_Index
3 5 8 8 11 12 14 12 11 10 10 7 6 8 9 8 10 12 2 1 -0 0 -0 -1 -1 -1 -1 -1 -2 -2 -2 -2 -2 -2 -2 -2 -2 -2 -2 -2 -2 -2 -2 -2 -2 -2 -2 -2 -2
5 6 8 11 14 16 14 11 11 10 8 6 6 7 8 11 6 4 3 0 -0 -0 -0 -0 -1 -1 -1 -1 -2 -2 -2 -2 -2 -2 -2 -2 -2 -2 -2 -2 -2 -2 -2 -2 -2 -2 -2 -2 -2
7 8 10 12 15 16 14 11 9 9 7 8 8 6 7 8 5 3 2 0 1 0 -0 -0 -1 -2 -1 -2 -2 -2 -2 -2 -2 -2 -2 -2 -2 -2 -2 -2 -2 -2 -2 -2 -2 -2 -2 -2 -2
8 8 10 13 15 14 12 9 8 8 8 7 7 9 6 4 4 2 1 1 1 0 -0 -1 -1 -2 -2 -2 -2 -2 -2 -2 -2 -2 -2 -2 -2 -2 -2 -2 -2 -2 -2 -2 -2 -2 -2 -2 -2
8 10 13 14 14 13 11 8 7 8 9 8 8 11 9 4 2 2 1 0 1 0 0 -0 -2 -2 -2 -2 -2 -2 -2 -2 -2 -2 -2 -2 -2 -2 -2 -2 -2 -2 -2 -2 -2 -2 -2 -2 -2
8 11 15 15 14 13 10 9 8 9 8 8 8 9 8 3 2 2 1 1 0 0 0 -0 -0 -1 -2 -2 -2 -2 -2 -2 -2 -2 -2 -2 -2 -2 -2 -2 -2 -2 -2 -2 -2 -2 -2 -2 -2
9 12 14 13 13 14 10 9 9 8 8 8 6 10 8 5 3 2 2 0 0 0 0 0 0 -0 -1 -1 -2 -2 -2 -2 -2 -2 -2 -2 -2 -2 -2 -2 -2 -2 -2 -2 -2 -2 -2 -2 -2
7 10 11 12 15 15 12 10 9 8 8 5 5 9 9 5 3 2 2 1 2 1 0 1 1 0 0 -0 -1 -1 -1 -1 -1 -1 -1 0 -0 -1 -1 -1 -2 -2 -2 -2 -2 -2 -2 -2 -2
7 11 13 11 13 13 11 11 10 7 7 7 6 6 4 3 3 3 3 2 2 1 1 1 1 1 1 0 1 0 -0 -0 -0 0 0 1 1 0 0 0 -1 -2 -2 -2 -2 -2 -2 -1 -1
9 12 11 8 9 12 12 12 9 8 8 8 8 5 3 3 3 3 3 3 3 2 1 1 1 1 1 -0 1 1 0 0 1 1 1 1 1 1 0 1 -1 -1 -1 -2 -2 -2 -1 0 1
8 12 8 8 7 7 11 12 11 9 10 7 8 6 4 4 3 4 3 3 2 2 2 1 1 0 0 0 1 1 1 1 1 2 1 1 1 1 1 1 1 1 2 2 1 1 2 2 2
10 8 7 7 6 8 11 12 12 9 8 7 5 4 4 5 4 4 3 3 3 2 2 1 1 0 1 1 1 1 1 1 2 1 1 1 2 2 2 2 2 2 2 3 2 2 2 2 2
9 8 7 6 6 6 9 12 12 11 10 6 4 4 5 4 4 3 3 3 3 3 1 1 1 0 0 1 1 1 1 1 1 1 1 1 2 2 2 1 1 2 2 2 3 3 3 3 3
8 8 8 8 7 8 11 12 13 13 8 6 5 5 5 4 4 4 4 3 3 3 2 0 0 -0 -0 0 1 1 1 0 1 1 1 1 1 2 2 2 1 1 2 2 3 3 3 3 3
8 10 8 8 9 11 11 12 13 12 8 7 6 5 5 4 4 4 3 3 3 2 2 2 1 0 1 1 0 0 0 1 1 1 1 1 1 2 1 2 2 2 2 3 3 3 3 3 3
11 11 14 9 10 11 11 13 10 12 10 8 7 6 5 5 4 3 2 3 2 2 2 2 1 1 1 2 1 -0 0 1 1 1 1 1 1 1 1 2 2 2 3 3 3 3 3 3 3
13 16 15 12 10 11 12 13 10 9 12 10 8 6 6 5 4 3 3 3 3 2 2 2 2 2 2 2 1 1 1 1 1 2 2 1 1 1 2 2 2 2 3 3 3 2 3 3 3
17 15 14 14 11 13 13 13 11 10 12 13 11 7 6 6 5 3 2 2 3 2 2 2 2 2 1 1 2 2 2 2 2 1 1 2 1 1 1 2 3 2 3 3 3 3 3 3 3
12 13 14 12 10 12 13 12 11 10 12 12 13 13 9 6 4 3 2 2 3 3 3 2 2 2 2 2 2 2 2 2 2 1 2 2 2 1 1 2 3 3 3 3 3 3 3 4 3
11 13 13 12 10 12 13 14 12 13 11 11 11 12 12 12 8 5 4 3 2 3 3 3 3 2 2 1 1 1 2 2 2 2 1 2 2 2 1 1 2 2 3 3 3 3 3 4 4
12 13 13 13 13 14 15 14 13 13 11 11 11 10 10 10 11 10 5 3 3 2 3 3 3 3 2 1 1 3 3 4 4 3 2 1 1 1 1 1 1 2 2 2 3 3 3 4 5
14 10 11 12 13 17 14 18 15 14 12 12 11 10 9 10 11 10 9 5 3 2 2 2 3 3 3 2 2 2 2 3 2 2 2 1 1 1 1 1 1 1 2 2 3 3 2 4 5
13 10 11 12 13 14 15 17 16 15 15 14 12 11 10 9 8 10 9 6 4 3 2 2 3 3 3 3 2 2 2 2 2 2 2 2 2 1 1 1 1 1 1 2 2 4 4 3 4
9 11 11 12 14 19 15 16 16 15 14 13 12 11 10 9 9 9 9 7 6 4 3 3 3 3 3 3 3 3 3 2 3 3 2 2 2 2 1 1 1 1 1 2 2 3 3 3 4
10 13 19 20 20 20 15 17 14 14 14 12 11 12 13 11 11 9 11 10 6 5 4 3 3 3 3 3 3 3 3 3 3 3 3 3 2 2 1 2 1 1 1 1 2 3 3 3 3
12 13 18 23 21 19 17 18 15 12 10 12 13 13 13 12 12 12 11 11 9 5 3 3 3 3 3 3 3 3 3 3 3 3 3 3 2 2 2 2 1 1 1 1 2 2 2 3 3
13 15 11 17 24 20 19 18 15 14 14 13 13 13 13 13 12 11 11 11 11 9 5 4 4 3 3 2 3 3 3 3 3 3 3 2 3 2 2 2 2 2 2 2 2 2 2 2 2
11 9 16 15 21 23 19 19 15 14 13 13 14 12 13 14 14 13 13 13 11 11 8 5 4 4 4 3 3 2 2 2 2 3 3 3 2 3 3 2 2 3 2 3 2 2 1 2 2
13 14 13 13 17 19 22 18 16 12 13 13 12 11 13 14 14 13 13 12 12 11 11 8 6 5 5 5 5 4 4 4 3 2 3 3 3 3 3 2 2 2 2 2 2 2 2 3 2
10 12 13 17 18 19 18 16 15 14 14 12 11 13 14 14 14 14 13 12 11 11 11 11 10 9 8 7 7 6 6 6 5 4 4 3 2 2 2 2 3 3 3 3 3 4 5 4 4

GFSSGP_con_lsi_144.txt.gz
Lid_Strength_Index
4 7 8 8 12 13 14 13 10 11 10 8 6 8 9 8 10 13 2 1 -0 0 -0 -0 -1 -1 -1 -1 -1 -1 -2 -2 -2 -2 -2 -2 -2 -2 -2 -2 -2 -2 -2 -2 -2 -2 -2 -2 -2
7 7 8 11 14 16 15 12 11 10 8 6 6 8 9 11 6 4 3 0 -0 -0 -0 -0 -1 -1 -1 -2 -1 -2 -2 -2 -2 -2 -2 -2 -2 -2 -2 -2 -2 -2 -2 -2 -2 -2 -2 -2 -2
7 8 10 13 15 16 15 12 10 9 7 8 9 6 8 9 4 3 2 0 0 0 0 -0 -1 -2 -2 -2 -2 -2 -2 -2 -2 -2 -2 -2 -2 -2 -2 -2 -2 -2 -2 -2 -2 -2 -2 -2 -2
8 9 10 14 15 14 13 11 8 8 8 7 7 10 7 3 3 2 0 1 1 1 0 -1 -1 -1 -2 -2 -2 -2 -2 -2 -2 -2 -2 -2 -2 -2 -2 -2 -2 -2 -2 -2 -2 -2 -2 -2 -2
8 10 13 15 15 15 12 9 8 9 8 9 8 10 9 4 1 1 1 1 1 1 0 -0 -1 -1 -2 -2 -2 -2 -2 -2 -2 -2 -2 -2 -2 -2 -2 -2 -2 -2 -2 -2 -2 -2 -2 -2 -2
8 11 14 15 14 14 11 9 8 9 8 9 9 9 9 4 3 2 1 2 1 0 0 -0 0 -1 -1 -2 -2 -2 -2 -2 -2 -2 -2 -2 -2 -2 -2 -2 -2 -2 -2 -2 -2 -2 -2 -2 -2
9 11 13 13 13 13 11 10 10 8 9 9 6 10 8 5 3 2 2 1 1 0 0 0 0 0 0 -1 -1 -2 -2 -2 -2 -2 -2 -2 -2 -2 -2 -2 -2 -2 -2 -2 -2 -2 -2 -2 -2
8 11 12 12 14 14 12 11 10 8 8 6 6 9 9 4 3 3 1 0 0 1 0 1 1 1 1 1 -0 -1 -1 -1 -1 -1 -0 -0 -1 -1 -1 -1 -2 -2 -2 -2 -2 -2 -2 -2 -2
6 11 13 11 13 13 12 12 11 7 7 7 6 6 5 3 3 3 3 2 1 1 1 1 1 1 1 0 1 0 -0 0 -0 0 1 1 1 0 0 -0 -1 -2 -2 -2 -2 -2 -2 -1 -2
8 11 11 8 9 12 11 12 10 8 8 8 9 6 3 3 3 4 3 3 2 3 1 1 1 1 1 -0 1 1 1 2 2 1 1 1 1 1 0 1 -0 -1 -1 -2 -2 -2 -1 1 2
8 11 9 8 7 7 10 12 11 10 10 8 8 6 4 4 4 4 4 3 2 2 1 1 1 1 1 1 1 2 2 2 2 2 2 1 1 1 1 1 1 2 2 2 2 2 2 2 2
10 8 7 7 7 7 10 12 12 10 9 8 5 4 4 4 4 4 4 4 2 2 1 1 1 1 1 1 1 1 2 2 2 2 2 2 2 2 2 2 2 3 3 3 3 3 3 2 2
10 8 7 7 7 7 7 10 12 11 10 6 4 4 5 4 4 3 3 3 3 2 2 1 2 1 1 1 1 2 2 2 2 2 1 1 2 2 2 2 2 3 3 3 3 3 3 3 3
8 8 8 7 8 7 9 12 13 12 9 6 5 5 5 4 4 4 4 3 3 3 2 1 1 1 0 1 1 1 2 2 2 2 1 1 2 2 2 2 2 2 2 2 3 3 4 3 3
8 10 9 8 8 9 10 13 13 11 8 7 6 6 5 4 4 5 3 3 3 2 3 1 1 1 1 1 1 1 1 1 2 2 1 1 1 2 2 2 3 2 2 3 3 4 4 4 3
10 11 14 9 9 9 10 14 9 11 10 9 7 6 5 5 4 4 4 3 2 2 3 2 0 1 1 0 0 0 1 1 1 1 1 1 1 2 2 3 3 3 3 3 4 4 4 4 4
12 16 15 12 10 11 11 13 10 9 11 11 8 7 6 5 4 4 3 3 3 2 2 2 2 1 1 1 1 1 1 1 1 1 1 1 1 1 2 2 3 3 3 4 4 4 4 4 4
16 16 15 13 11 12 13 12 11 11 13 12 12 8 7 6 5 3 3 3 3 2 2 2 2 2 2 1 2 2 2 1 1 1 2 2 1 1 2 2 3 3 3 4 4 4 4 3 3
12 14 14 12 10 13 13 12 10 11 12 12 13 14 9 6 4 3 3 3 3 4 3 2 2 2 2 2 2 3 3 2 2 1 2 2 2 2 1 1 2 3 4 4 4 4 4 3 2
12 13 14 11 9 13 13 14 11 11 11 11 11 11 12 10 7 5 4 3 3 3 3 3 2 2 2 2 2 2 2 2 2 2 2 1 2 2 2 2 2 3 4 4 4 4 4 4 3
12 13 13 13 11 11 14 14 12 12 12 11 11 10 10 11 10 10 6 4 3 2 3 3 3 2 2 1 1 3 3 4 3 2 2 2 2 2 2 2 2 2 3 3 4 4 4 3 4
14 10 11 12 13 17 12 18 14 12 12 11 11 10 10 10 10 10 10 7 4 3 2 2 2 3 2 1 1 2 2 3 2 2 2 2 2 1 1 2 2 2 2 3 3 3 3 3 3
13 10 11 12 13 15 14 16 16 14 14 13 12 11 9 9 9 9 9 9 5 3 3 3 2 2 2 2 2 2 2 2 2 2 3 2 2 2 2 1 1 2 2 2 3 4 4 3 2
9 11 11 12 13 19 15 16 17 15 14 13 12 11 10 9 9 8 9 9 7 4 3 3 2 3 2 3 2 3 3 2 3 3 3 3 2 2 2 2 2 2 1 2 2 2 3 3 3
11 13 19 20 20 20 15 16 14 13 13 12 11 11 10 10 10 10 10 10 8 6 4 4 3 3 3 3 3 3 3 3 3 3 3 3 3 3 3 2 2 2 1 1 2 2 2 3 3
13 14 18 23 22 19 17 19 15 11 9 10 12 12 13 13 12 11 10 10 9 7 5 4 3 3 3 3 3 3 3 3 3 3 3 3 3 3 3 3 2 2 1 1 1 1 2 2 3
13 16 12 17 24 20 18 16 15 13 13 13 13 12 13 13 13 12 12 11 11 8 6 4 3 3 3 3 3 3 3 3 3 3 3 3 3 3 3 3 3 2 2 2 2 2 2 2 2
11 10 17 16 21 23 18 18 15 14 11 11 13 13 11 13 14 13 12 12 12 12 8 5 4 3 3 3 3 3 3 3 3 4 4 3 3 3 3 3 3 3 3 3 2 2 2 2 2
13 14 14 14 16 20 21 17 15 12 12 12 11 12 11 12 14 14 14 14 13 12 12 8 6 5 5 4 4 4 3 3 3 3 3 3 3 3 3 3 3 3 2 3 3 3 3 3 2
10 13 13 18 19 18 18 16 15 12 11 13 13 12 12 12 13 15 14 14 13 13 12 10 8 6 6 5 5 5 5 5 4 4 4 3 3 2 2 2 2 2 2 2 3 3 4 3 4

GFSSGP_con_lsi_147.txt.gz
Lid_Strength_Index
3 6 6 7 11 11 12 11 9 9 9 6 5 7 8 7 9 11 1 0 -0 -0 -1 -1 -1 -2 -1 -1 -2 -2 -2 -2 -2 -2 -2 -2 -2 -2 -2 -2 -3 -2 -2 -2 -2 -2 -2 -2 -2
6 6 7 10 13 14 13 10 10 8 7 6 6 6 7 8 5 4 3 -0 -1 -1 -1 -1 -1 -2 -1 -2 -2 -2 -2 -2 -2 -2 -2 -2 -2 -2 -2 -2 -2 -2 -2 -2 -2 -2 -2 -2 -2
5 7 8 12 14 14 13 11 9 7 6 6 7 5 6 7 4 3 1 -0 -1 -1 -1 -1 -1 -2 -2 -2 -2 -2 -2 -2 -2 -2 -2 -2 -2 -2 -2 -2 -2 -2 -2 -2 -2 -2 -2 -2 -2
7 7 9 12 13 12 11 10 7 8 6 5 6 8 5 2 3 1 -0 -0 -0 -1 -1 -1 -1 -2 -2 -2 -2 -2 -2 -2 -2 -2 -2 -2 -2 -2 -2 -2 -2 -2 -2 -2 -2 -2 -2 -2 -2
7 9 12 13 12 12 11 9 7 8 7 7 6 8 7 3 1 0 0 -0 0 -0 -1 -1 -1 -1 -2 -2 -2 -2 -2 -2 -2 -2 -2 -2 -2 -2 -2 -2 -2 -2 -2 -2 -2 -2 -2 -2 -2
8 10 13 14 12 12 9 9 8 8 7 7 7 7 7 2 2 1 0 0 -0 -0 -1 -1 0 -0 -1 -2 -2 -2 -2 -2 -2 -2 -2 -2 -2 -2 -2 -2 -2 -2 -2 -2 -2 -2 -2 -2 -2
8 10 12 12 12 12 10 9 9 7 7 7 5 8 6 4 2 1 1 0 -0 -1 -1 -1 -1 -0 0 -0 -1 -1 -2 -2 -2 -2 -2 -2 -2 -2 -2 -2 -2 -2 -2 -2 -2 -2 -2 -2 -2
7 8 11 11 12 13 10 9 9 7 7 4 4 8 8 4 2 2 1 1 0 -0 -1 -1 -0 0 -0 -1 0 -0 -2 -1 -1 -1 -1 -1 -1 -1 -1 -1 -2 -2 -2 -2 -2 -2 -2 -2 -2
5 11 13 11 11 12 10 11 9 7 6 5 5 5 4 3 2 3 2 1 1 0 -0 -1 -0 0 0 0 1 -0 0 0 0 0 1 0 -1 -1 -1 -1 -2 -2 -2 -2 -2 -2 -2 -2 -2
8 11 11 8 8 10 9 11 10 7 7 7 6 4 3 3 3 4 3 3 2 1 1 -0 -0 -0 -0 -0 -1 -1 -1 -0 -0 -1 -1 -1 -1 -1 -1 0 -0 -1 -1 -2 -2 -1 -1 -0 -1
8 11 8 8 7 7 8 11 10 9 9 7 7 6 4 4 3 4 3 2 2 1 2 -0 -0 -1 -1 -1 -1 -1 -0 0 0 -0 -1 -1 0 -0 -1 -1 -1 -1 1 -0 -0 -0 -0 -0 -1
10 8 7 7 6 7 8 9 11 9 8 8 5 4 4 4 4 3 3 2 2 1 2 0 -0 -0 -0 -0 -0 -0 0 0 1 0 -0 -0 -0 -0 -1 -1 -0 -0 0 0 0 -0 0 0 0
9 8 7 6 7 7 7 8 8 11 9 8 4 4 4 4 4 3 3 3 2 2 1 0 0 -0 -0 -0 -0 -0 0 0 0 0 -0 -0 -0 -0 -0 -0 -0 0 0 0 0 0 1 1 1
7 8 8 7 7 7 8 9 11 9 9 7 5 5 4 4 4 3 3 3 3 2 1 0 1 -0 -0 -0 -0 -0 0 0 0 0 -0 -0 -0 -0 -0 -0 0 -0 0 -0 0 1 1 1 1
7 10 9 8 7 8 9 10 12 9 8 8 6 5 5 4 3 3 3 3 3 2 1 0 1 0 -0 -0 -0 0 0 1 1 0 -0 -0 -0 0 0 0 0 0 -0 0 0 1 2 2 1
10 10 14 9 8 8 8 13 9 9 9 9 7 6 5 4 4 3 3 2 2 2 2 1 -0 0 0 -0 -0 -0 0 0 0 0 -0 -0 -0 -0 -0 0 1 0 0 0 1 1 2 2 1
11 15 14 12 8 10 10 12 8 7 11 10 10 7 5 5 4 3 3 2 2 2 2 2 1 0 0 -0 -0 -0 -0 0 0 0 -0 -0 -0 -0 -0 0 0 1 1 1 1 2 2 2 1
15 15 14 14 10 11 13 13 10 9 11 10 10 9 7 6 5 3 3 3 2 2 2 2 2 1 0 -0 -0 -0 -0 -0 -0 -0 -0 -0 -1 -0 0 0 0 1 1 2 2 2 2 1 1
11 13 14 12 9 11 11 12 10 9 11 12 11 12 10 7 5 4 2 2 3 2 2 2 2 2 2 1 1 1 1 1 0 -0 -1 -1 -0 0 0 0 0 0 1 2 2 2 2 2 1
12 13 14 11 9 10 11 13 11 10 11 10 10 10 11 10 8 5 4 2 2 3 2 2 1 1 2 1 1 1 1 1 1 -0 0 0 0 0 0 0 0 1 1 2 2 2 2 2 1
12 13 13 13 11 10 11 13 12 11 10 10 10 9 9 9 9 9 6 3 2 2 2 2 2 1 1 1 1 2 1 2 1 1 1 1 0 1 1 1 0 1 1 1 2 2 3 2 2
14 10 11 12 13 17 11 18 13 12 11 11 10 10 9 10 9 9 9 6 3 2 1 2 2 1 1 1 1 1 2 2 1 1 1 1 1 1 1 1 1 1 1 1 1 1 2 2 2
13 9 11 11 13 14 14 17 14 12 13 11 10 9 9 8 9 9 9 9 5 3 2 2 2 2 1 1 1 1 2 1 1 1 1 1 1 1 1 1 1 1 1 1 1 2 2 2 1
9 11 11 12 13 19 15 16 15 13 12 11 10 10 9 8 9 8 7 7 8 4 3 2 2 3 2 1 1 1 2 1 2 2 2 2 1 1 1 1 1 1 0 1 1 1 1 2 1
11 14 19 20 20 20 14 16 14 12 12 11 10 10 9 9 9 8 8 9 9 7 4 3 3 3 2 3 2 1 1 1 2 2 2 2 2 2 2 1 1 1 0 0 1 1 1 2 2
13 14 18 22 22 19 15 18 14 10 8 8 8 10 11 11 11 10 9 9 9 8 5 3 3 3 3 3 2 1 1 1 2 2 2 2 2 2 2 2 1 1 1 1 1 1 1 1 2
13 15 12 17 20 20 17 15 12 12 11 11 11 11 11 11 12 12 11 10 10 9 7 4 4 3 3 3 3 2 2 2 2 2 2 2 2 2 2 2 2 2 2 1 1 1 2 2 2
11 10 17 16 21 22 18 17 15 14 10 8 9 11 10 11 11 12 12 12 11 11 8 6 4 3 3 3 2 2 2 2 2 3 3 2 2 2 2 2 2 2 2 2 2 2 2 2 2
13 14 14 14 16 20 21 17 14 12 11 9 8 9 11 11 11 11 13 14 13 12 11 7 5 5 4 3 3 2 3 3 2 3 3 2 2 3 3 3 3 2 3 3 3 2 2 3 3
10 12 12 17 19 17 17 17 13 11 11 11 10 10 11 11 11 12 14 14 14 13 12 11 7 5 4 4 4 3 4 3 3 3 3 3 3 3 2 2 3 2 2 2 3 3 3 3 4